sat.trackr.live / text

‹ back to catalog

STARLINK-31337

NORAD 58934 · 2024-027D

PAYLOAD ACTIVE UNKNOWN

§ Identity

Operator
Country
US
Launch date
2024-02-10
Launch site
AFWTR
Launch vehicle
Mass (kg)
RCS (m²)

Purposes: comms

External: N2YO · Heavens-Above · Gunter

§ Orbital elements

Epoch: 2026-05-25T04:31:00.486912Z

Period
94.11 min
Inclination
53.1604°
Eccentricity
0.0001150
Mean motion
15.30189791 rev/d
Perigee alt
474.5 km
Apogee alt
476.0 km
Semi-major
6,853.4 km
B*
4.5912e-5
RAAN
314.0782°
Arg perigee
103.8916°
Mean anomaly
256.2213°
Rev number
12,904

§ Raw data

STARLINK-313371 58934U 24027D   26145.18820008  .00001000  00000+0  45912-4 0  99942 58934  53.1604 314.0782 0001150 103.8916 256.2213 15.30189791129041

JSON: /api/v1/satellites/58934 · /tle

For live sub-satellite position, see the globe view (requires WebGL).

§ Visibility from observer

Set your observer location to see the next 7 days of passes ≥ 10°. The values pass through the URL so the page stays shareable.

No JS? Fill the form by hand. The geolocation button needs JavaScript.